Volver al catálogo

ARIANE 5 R/B

ActivoHEO
NORAD 38780·ROCKET BODY·🇫🇷 France

Lanzado Sep 28, 2012 desde Guiana Space Centre

Loading…

Próximos Pases (próximas 24 horas)

TLE

ActualizadoSource: Space-Track

Época: Sep 14, 2026, 18:50 UTC

1 38780U 12051C   26257.78496953  .00015058  00000-0  13715-2 0  9996
2 38780   6.1488 272.2797 6833613 243.4714  33.0234  2.88838528128622

Sigue ARIANE 5 R/B en tiempo real con AllMySat

Download on the App Store